Lid_Strength_Index
2 2 2 3 4 4 5 8 10 6 5 10 12 12 10 9 9 7 8 9 9 11 11 12 12 12 10 8 9 11 11 14 17 14 11 10 11 12 13 18 18 18 20 17
2 2 3 4 4 5 6 7 8 5 6 13 16 10 9 9 9 9 9 10 9 9 11 13 11 10 8 8 9 11 11 14 18 16 13 12 12 12 12 15 16 16 20 17
2 2 4 4 4 4 6 8 11 8 8 9 10 11 11 10 8 8 8 9 9 9 11 10 12 11 8 8 8 7 9 13 15 18 15 14 14 13 12 13 16 16 16 14
2 4 4 3 3 4 5 8 11 9 13 11 10 9 10 10 11 8 8 9 9 10 13 12 14 11 10 9 8 9 10 14 14 13 12 13 12 13 12 14 14 16 14 14
3 4 4 3 3 4 6 7 9 9 9 9 10 11 11 10 10 9 10 10 10 10 12 11 14 11 11 11 9 11 11 15 15 15 13 13 15 13 12 13 13 13 12 13
3 4 5 4 3 4 6 7 8 8 12 13 13 13 10 10 9 9 8 8 10 13 9 8 8 8 8 9 11 12 12 16 16 19 15 16 18 15 14 13 12 13 15 12
2 4 4 4 4 4 5 6 8 11 14 16 12 9 9 9 9 9 8 8 11 9 7 8 9 10 12 11 10 9 15 17 17 19 15 20 14 12 12 13 12 11 12 12
2 4 4 4 4 4 4 6 7 10 14 12 11 9 9 9 9 9 8 7 7 7 9 13 15 16 16 15 11 12 12 14 16 17 17 16 13 12 14 14 14 12 12 10
3 3 3 3 4 4 3 5 7 8 12 11 8 9 9 12 13 12 10 7 7 8 15 15 19 20 17 16 14 12 13 16 17 17 18 19 14 12 11 10 16 11 9 9
3 3 3 3 3 3 4 4 5 7 11 9 8 11 10 9 12 12 12 10 11 10 15 16 19 18 15 17 19 19 17 16 15 15 17 17 12 11 10 15 15 10 10 9
3 3 3 3 3 3 4 4 4 5 10 8 6 6 8 9 10 12 10 10 12 12 13 16 16 21 16 17 15 16 16 19 20 18 18 19 11 10 13 10 9 8 8 9
4 3 3 3 3 3 3 5 4 4 7 7 5 5 5 5 6 8 10 10 11 12 13 14 16 18 16 15 15 13 16 14 14 13 15 11 9 8 8 8 8 9 9 8
4 4 3 3 3 3 3 5 5 6 11 8 7 7 5 3 4 4 9 13 9 10 10 13 14 17 15 14 14 15 11 9 12 12 11 9 7 7 7 7 7 8 8 8
4 4 4 4 3 3 4 5 6 6 10 13 10 6 6 4 3 5 5 6 7 8 10 13 14 13 10 13 11 12 10 9 11 11 8 9 8 8 8 8 8 8 7 7
3 3 4 4 3 4 4 5 4 4 6 11 10 7 5 4 4 5 6 6 7 9 11 13 12 12 12 13 12 12 9 10 12 12 8 8 7 7 7 8 8 7 7 8
4 3 3 3 3 3 4 6 5 4 3 9 12 8 9 7 6 6 7 6 7 8 9 12 10 8 10 13 13 10 8 7 6 8 6 6 7 8 8 9 9 8 8 8
5 5 4 3 3 2 4 6 6 4 5 11 12 12 12 9 8 8 8 8 9 9 9 11 11 11 8 13 12 9 8 7 7 6 7 9 9 9 8 8 8 8 8 8
5 5 5 4 3 4 5 5 4 3 6 9 12 12 13 10 12 12 10 12 11 9 9 11 12 11 12 13 9 9 8 8 8 9 8 9 7 7 8 9 9 10 10 9
5 5 5 5 6 8 7 5 4 5 6 10 13 13 13 9 11 12 13 12 13 11 13 13 11 13 13 11 11 11 10 10 10 9 9 9 11 11 10 10 10 10 10 9
5 6 8 12 10 5 5 7 9 10 11 11 13 12 13 9 13 13 13 13 13 14 13 12 13 13 10 11 10 10 10 10 10 11 11 11 11 11 10 9 9 9 9 8
7 10 12 8 5 8 10 13 12 12 13 13 13 13 12 10 13 13 13 14 14 18 18 14 15 16 13 12 12 11 11 10 10 10 10 9 9 9 9 9 9 9 9 9
7 7 7 8 9 12 12 14 14 13 15 13 13 12 11 12 10 13 13 15 15 18 16 16 20 16 13 12 12 11 10 10 10 10 9 9 8 8 8 8 8 9 9 11
7 9 11 10 12 14 14 17 15 15 14 13 13 13 12 12 12 13 14 18 19 17 19 19 17 13 13 12 11 10 10 11 11 10 10 9 9 9 10 9 9 10 10 9
12 13 13 14 16 15 15 15 18 16 13 13 13 13 14 14 15 16 19 18 18 18 21 20 17 13 12 12 11 11 10 12 12 10 9 10 10 10 10 11 11 11 10 9
13 14 17 15 15 14 13 12 12 12 12 12 13 14 15 16 18 16 19 18 19 17 19 19 15 12 11 11 10 10 11 12 12 9 10 11 11 11 10 9 10 10 11 10
13 15 18 14 13 13 12 12 12 10 11 13 14 18 18 19 20 21 19 20 20 19 20 16 14 11 10 10 10 10 10 10 9 8 9 9 11 11 8 8 9 10 10 10
16 18 13 17 17 16 15 11 11 10 11 15 17 21 20 19 23 22 18 20 18 18 16 14 11 10 9 9 9 10 9 9 9 9 9 9 9 10 11 11 8 8 8 10